EN

Hourly Weather Lagiewniki

Today, 1 August, Sunday

Time Temperature Precipitation Wind Pressure Humidity
00:00 +19°C° 0 mm 2 mps 740 mmHg 61%
01:00 +18°C° 0 mm 2 mps 741 mmHg 62%
02:00 +19°C° 0 mm 1 mps 740 mmHg 62%
03:00 +18°C° 0 mm 1 mps 740 mmHg 63%
04:00 +18°C° 0 mm 1 mps 740 mmHg 64%
05:00 +19°C° 0.1 mm 1 mps 740 mmHg 63%
06:00 +19°C° 0.1 mm 1 mps 740 mmHg 62%
07:00 +20°C° 0.1 mm 1 mps 740 mmHg 61%
08:00 +19°C° 2.5 mm 1 mps 740 mmHg 71%
09:00 +17°C° 2.5 mm 2 mps 740 mmHg 82%
10:00 +16°C° 2.5 mm 2 mps 740 mmHg 92%
11:00 +16°C° 2.5 mm 3 mps 740 mmHg 92%
12:00 +16°C° 2.5 mm 3 mps 740 mmHg 93%
13:00 +16°C° 2.5 mm 3 mps 740 mmHg 93%
14:00 +16°C° 0.2 mm 3 mps 740 mmHg 92%
15:00 +16°C° 0.2 mm 3 mps 739 mmHg 92%
16:00 +16°C° 0.2 mm 3 mps 739 mmHg 92%
17:00 +16°C° 0.2 mm 3 mps 739 mmHg 92%
18:00 +16°C° 0.2 mm 2 mps 739 mmHg 92%
19:00 +16°C° 0.2 mm 2 mps 740 mmHg 92%
20:00 +16°C° 0 mm 2 mps 740 mmHg 92%
21:00 +16°C° 0 mm 2 mps 740 mmHg 92%
22:00 +16°C° 0 mm 2 mps 740 mmHg 92%
23:00 +16°C° 0 mm 2 mps 740 mmHg 91%

Tomorrow, 2 August, Monday

Time Temperature Precipitation Wind Pressure Humidity
00:00 +15°C° 0 mm 2 mps 740 mmHg 91%
01:00 +15°C° 0 mm 2 mps 740 mmHg 90%
02:00 +15°C° 0.2 mm 2 mps 740 mmHg 91%
03:00 +15°C° 0.2 mm 2 mps 740 mmHg 92%
04:00 +14°C° 0.2 mm 3 mps 740 mmHg 92%
05:00 +14°C° 0.2 mm 3 mps 740 mmHg 91%
06:00 +14°C° 0.2 mm 3 mps 740 mmHg 90%
07:00 +16°C° 0.2 mm 3 mps 741 mmHg 89%
08:00 +17°C° 0.7 mm 4 mps 741 mmHg 82%
09:00 +19°C° 0.7 mm 4 mps 741 mmHg 76%
10:00 +20°C° 0.7 mm 4 mps 741 mmHg 69%
11:00 +21°C° 0.9 mm 5 mps 741 mmHg 67%
12:00 +21°C° 0.9 mm 5 mps 742 mmHg 65%
13:00 +21°C° 0.9 mm 5 mps 742 mmHg 63%
14:00 +21°C° 0.5 mm 5 mps 742 mmHg 65%
15:00 +21°C° 0.5 mm 5 mps 742 mmHg 67%
16:00 +20°C° 0.5 mm 4 mps 742 mmHg 70%
17:00 +19°C° 0.4 mm 4 mps 742 mmHg 73%
18:00 +19°C° 0.4 mm 3 mps 743 mmHg 76%
19:00 +18°C° 0.4 mm 3 mps 743 mmHg 79%
20:00 +17°C° 0 mm 3 mps 743 mmHg 80%
21:00 +17°C° 0 mm 3 mps 743 mmHg 81%
22:00 +16°C° 0 mm 3 mps 743 mmHg 83%
23:00 +16°C° 0 mm 3 mps 744 mmHg 84%

Day after tomorrow, 3 August, Tuesday

Time Temperature Precipitation Wind Pressure Humidity
00:00 +16°C° 0 mm 3 mps 744 mmHg 86%
01:00 +14°C° 0 mm 3 mps 744 mmHg 87%
02:00 +14°C° 0 mm 3 mps 744 mmHg 88%
03:00 +15°C° 0 mm 2 mps 744 mmHg 89%
04:00 +14°C° 0 mm 2 mps 744 mmHg 89%
05:00 +14°C° 0 mm 3 mps 745 mmHg 85%
06:00 +16°C° 0 mm 3 mps 745 mmHg 81%
07:00 +17°C° 0 mm 3 mps 745 mmHg 77%
08:00 +18°C° 0 mm 3 mps 745 mmHg 69%
09:00 +20°C° 0 mm 3 mps 745 mmHg 62%
10:00 +21°C° 0 mm 3 mps 745 mmHg 54%
11:00 +22°C° 0 mm 3 mps 745 mmHg 51%
12:00 +24°C° 0 mm 3 mps 745 mmHg 48%
13:00 +25°C° 0 mm 2 mps 745 mmHg 45%
14:00 +25°C° 0 mm 2 mps 744 mmHg 44%
15:00 +25°C° 0 mm 2 mps 744 mmHg 43%
16:00 +26°C° 0 mm 2 mps 744 mmHg 42%
17:00 +25°C° 0 mm 2 mps 744 mmHg 46%
18:00 +24°C° 0 mm 2 mps 743 mmHg 50%
19:00 +23°C° 0 mm 2 mps 743 mmHg 54%
20:00 +21°C° 0.2 mm 2 mps 743 mmHg 58%
21:00 +20°C° 0.2 mm 2 mps 744 mmHg 61%
22:00 +19°C° 0.2 mm 2 mps 744 mmHg 65%
23:00 +18°C° 0.1 mm 2 mps 744 mmHg 69%

4 August, Wednesday

Time Temperature Precipitation Wind Pressure Humidity
00:00 +18°C° 0.1 mm 2 mps 744 mmHg 72%
01:00 +17°C° 0.1 mm 2 mps 744 mmHg 76%
02:00 +18°C° 0.1 mm 1 mps 743 mmHg 78%
03:00 +18°C° 0.1 mm 1 mps 743 mmHg 80%
04:00 +16°C° 0.1 mm 1 mps 743 mmHg 82%
05:00 +18°C° 0.1 mm 1 mps 743 mmHg 80%
06:00 +19°C° 0.1 mm 1 mps 743 mmHg 78%
07:00 +19°C° 0.1 mm 2 mps 744 mmHg 77%
08:00 +20°C° 0 mm 2 mps 744 mmHg 72%
09:00 +21°C° 0 mm 2 mps 743 mmHg 67%
10:00 +23°C° 0 mm 2 mps 743 mmHg 62%
11:00 +23°C° 0.2 mm 2 mps 743 mmHg 63%
12:00 +22°C° 0.2 mm 3 mps 743 mmHg 64%
13:00 +21°C° 0.2 mm 3 mps 743 mmHg 65%
14:00 +22°C° 0.1 mm 3 mps 743 mmHg 63%
15:00 +22°C° 0.1 mm 3 mps 743 mmHg 62%
16:00 +22°C° 0.1 mm 3 mps 743 mmHg 60%
17:00 +22°C° 0 mm 3 mps 743 mmHg 64%
18:00 +21°C° 0 mm 2 mps 743 mmHg 68%
19:00 +20°C° 0 mm 2 mps 743 mmHg 73%
20:00 +19°C° 0 mm 2 mps 743 mmHg 74%
21:00 +18°C° 0 mm 2 mps 743 mmHg 75%
22:00 +18°C° 0 mm 2 mps 743 mmHg 76%
23:00 +18°C° 0 mm 2 mps 743 mmHg 75%

5 August, Thursday

Time Temperature Precipitation Wind Pressure Humidity
00:00 +18°C° 0 mm 2 mps 743 mmHg 74%
01:00 +17°C° 0 mm 2 mps 743 mmHg 72%
02:00 +17°C° 0.2 mm 2 mps 743 mmHg 76%
03:00 +16°C° 0.2 mm 2 mps 743 mmHg 80%
04:00 +16°C° 0.2 mm 2 mps 742 mmHg 84%
05:00 +16°C° 0.3 mm 2 mps 742 mmHg 85%
06:00 +16°C° 0.3 mm 2 mps 742 mmHg 86%
07:00 +16°C° 0.3 mm 2 mps 742 mmHg 87%
08:00 +17°C° 0.4 mm 2 mps 742 mmHg 82%
09:00 +17°C° 0.4 mm 2 mps 742 mmHg 78%
10:00 +18°C° 0.4 mm 2 mps 742 mmHg 74%
11:00 +19°C° 0 mm 2 mps 742 mmHg 67%
12:00 +21°C° 0 mm 2 mps 741 mmHg 60%
13:00 +23°C° 0 mm 2 mps 741 mmHg 53%
14:00 +23°C° 0 mm 2 mps 741 mmHg 54%
15:00 +23°C° 0 mm 2 mps 740 mmHg 56%
16:00 +21°C° 0 mm 2 mps 740 mmHg 57%
17:00 +21°C° 0 mm 2 mps 740 mmHg 60%
18:00 +20°C° 0 mm 2 mps 740 mmHg 63%
19:00 +19°C° 0 mm 2 mps 740 mmHg 66%
20:00 +19°C° 0 mm 2 mps 740 mmHg 68%
21:00 +18°C° 0 mm 2 mps 740 mmHg 70%
22:00 +17°C° 0 mm 2 mps 740 mmHg 73%
23:00 +17°C° 0 mm 2 mps 740 mmHg 74%

6 August, Friday

Time Temperature Precipitation Wind Pressure Humidity
00:00 +16°C° 0 mm 2 mps 740 mmHg 76%
01:00 +16°C° 0 mm 3 mps 740 mmHg 78%
02:00 +14°C° 0 mm 3 mps 739 mmHg 81%
03:00 +14°C° 0 mm 3 mps 739 mmHg 84%
04:00 +13°C° 0 mm 3 mps 739 mmHg 87%
05:00 +14°C° 0 mm 3 mps 739 mmHg 82%
06:00 +17°C° 0 mm 3 mps 740 mmHg 77%
07:00 +18°C° 0 mm 4 mps 740 mmHg 71%
08:00 +19°C° 0 mm 4 mps 740 mmHg 65%
09:00 +21°C° 0 mm 4 mps 740 mmHg 59%
10:00 +22°C° 0 mm 5 mps 740 mmHg 53%
11:00 +22°C° 0.1 mm 5 mps 740 mmHg 52%
12:00 +23°C° 0.1 mm 5 mps 739 mmHg 51%
13:00 +23°C° 0.1 mm 6 mps 739 mmHg 50%
14:00 +23°C° 0 mm 6 mps 739 mmHg 51%
15:00 +23°C° 0 mm 5 mps 739 mmHg 53%
16:00 +23°C° 0 mm 5 mps 739 mmHg 54%
17:00 +22°C° 0.1 mm 5 mps 739 mmHg 60%
18:00 +21°C° 0.1 mm 4 mps 739 mmHg 65%
19:00 +20°C° 0.1 mm 4 mps 739 mmHg 70%
20:00 +19°C° 0 mm 4 mps 739 mmHg 75%
21:00 +18°C° 0 mm 3 mps 739 mmHg 79%
22:00 +17°C° 0 mm 3 mps 739 mmHg 83%
23:00 +17°C° 0 mm 3 mps 739 mmHg 85%
Show more